ASA95 KSEA-PAJN

Flight info

Callsign ASA95
Flight time 2h 6m
Altitude 38000
Route BANGR9 PANGL KEVNA ANN SSR
Aircraft B739/M-SDE2E3FGHIRWXY/LB1

Departure

Time 2026-04-15 15:03
Airport Seattle–Tacoma International Airport (KSEA)

Arrival

Time 2026-04-15 17:09
Airport Juneau International Airport (PAJN)
Time Latitude Longitude Altitude Speed Heading
2026-04-15 14:33 47.44532 -122.30465 393 ft 0 kts 92°
2026-04-15 14:52 47.44531 -122.30501 393 ft 4 kts 72°
2026-04-15 14:52 47.44518 -122.30533 393 ft 4 kts 34°
2026-04-15 14:53 47.44498 -122.30545 393 ft 1 kts
2026-04-15 14:56 47.44539 -122.30573 393 ft 11 kts 316°
2026-04-15 14:56 47.44608 -122.30624 393 ft 11 kts 346°
2026-04-15 14:56 47.44683 -122.30630 393 ft 11 kts 358°
2026-04-15 14:56 47.44756 -122.30629 393 ft 10 kts 360°
2026-04-15 14:57 47.44828 -122.30630 393 ft 10 kts 360°
2026-04-15 14:57 47.44897 -122.30630 393 ft 10 kts
2026-04-15 14:57 47.44965 -122.30628 393 ft 10 kts 360°
2026-04-15 14:57 47.45030 -122.30626 393 ft 9 kts
2026-04-15 14:58 47.45094 -122.30626 393 ft 9 kts 359°
2026-04-15 14:58 47.45159 -122.30626 393 ft 11 kts
2026-04-15 14:58 47.45246 -122.30625 393 ft 13 kts
2026-04-15 14:58 47.45335 -122.30625 393 ft 13 kts
2026-04-15 14:59 47.45420 -122.30625 393 ft 12 kts
2026-04-15 14:59 47.45504 -122.30624 393 ft 12 kts
2026-04-15 14:59 47.45585 -122.30622 393 ft 12 kts
2026-04-15 14:59 47.45665 -122.30621 393 ft 11 kts
2026-04-15 15:00 47.45742 -122.30620 393 ft 11 kts
2026-04-15 15:00 47.45826 -122.30620 393 ft 14 kts 360°
2026-04-15 15:00 47.45930 -122.30620 393 ft 15 kts
2026-04-15 15:00 47.46033 -122.30626 393 ft 15 kts 356°
2026-04-15 15:01 47.46132 -122.30623 393 ft 14 kts 358°
2026-04-15 15:01 47.46227 -122.30616 393 ft 13 kts
2026-04-15 15:01 47.46317 -122.30615 393 ft 13 kts 358°
2026-04-15 15:01 47.46375 -122.30686 393 ft 11 kts 279°
2026-04-15 15:02 47.46340 -122.30768 393 ft 10 kts 204°
2026-04-15 15:02 47.46166 -122.30780 393 ft 57 kts 180°
2026-04-15 15:02 47.45523 -122.30787 393 ft 125 kts 181°
2026-04-15 15:02 47.44491 -122.30787 531 ft 163 kts 179°
2026-04-15 15:03 47.43314 -122.30833 1088 ft 176 kts 180°
2026-04-15 15:03 47.42013 -122.30852 1593 ft 196 kts 180°
2026-04-15 15:03 47.40628 -122.30878 2206 ft 206 kts 181°
2026-04-15 15:03 47.39099 -122.30907 2381 ft 229 kts 181°
2026-04-15 15:04 47.37436 -122.30953 2604 ft 252 kts 181°
2026-04-15 15:04 47.35635 -122.31017 3117 ft 263 kts 181°
2026-04-15 15:04 47.33811 -122.31340 3778 ft 267 kts 202°
2026-04-15 15:04 47.32324 -122.32909 4550 ft 264 kts 234°
2026-04-15 15:05 47.31544 -122.35319 5207 ft 266 kts 257°
2026-04-15 15:05 47.31223 -122.38026 5870 ft 270 kts 261°
2026-04-15 15:05 47.30953 -122.40704 6746 ft 264 kts 261°
2026-04-15 15:05 47.30813 -122.43430 7479 ft 267 kts 278°
2026-04-15 15:06 47.32274 -122.48418 9045 ft 267 kts 298°
2026-04-15 15:06 47.33173 -122.50807 9941 ft 267 kts 300°
2026-04-15 15:06 47.34375 -122.52940 10465 ft 281 kts 316°
2026-04-15 15:07 47.35916 -122.54909 10640 ft 305 kts 318°
2026-04-15 15:07 47.37593 -122.57007 10819 ft 326 kts 318°
2026-04-15 15:07 47.39371 -122.59235 10978 ft 345 kts 318°
2026-04-15 15:07 47.41246 -122.61603 11199 ft 361 kts 317°
2026-04-15 15:08 47.43168 -122.64049 11703 ft 368 kts 317°
2026-04-15 15:08 47.44480 -122.65727 12150 ft 369 kts 317°
2026-04-15 15:08 47.46424 -122.68219 12862 ft 371 kts 317°
2026-04-15 15:08 47.48351 -122.70701 13562 ft 373 kts 316°
2026-04-15 15:09 47.50314 -122.73229 14193 ft 376 kts 316°
2026-04-15 15:09 47.52298 -122.75791 14766 ft 381 kts 316°
2026-04-15 15:09 47.54305 -122.78389 15362 ft 385 kts 315°
2026-04-15 15:09 47.56358 -122.81045 15969 ft 389 kts 314°
2026-04-15 15:10 47.58404 -122.83688 16520 ft 393 kts 314°
2026-04-15 15:10 47.60434 -122.86340 17100 ft 396 kts 313°
2026-04-15 15:10 47.62510 -122.89044 17757 ft 400 kts 314°
2026-04-15 15:10 47.64611 -122.91780 18311 ft 403 kts 313°
2026-04-15 15:11 47.66658 -122.94628 18812 ft 405 kts 310°
2026-04-15 15:11 47.68662 -122.97576 19348 ft 407 kts 309°
2026-04-15 15:11 47.70660 -123.00575 19888 ft 410 kts 308°
2026-04-15 15:11 47.72677 -123.03599 20341 ft 414 kts 308°
2026-04-15 15:12 47.74707 -123.06655 20802 ft 417 kts 308°
2026-04-15 15:12 47.76759 -123.09724 21314 ft 420 kts 308°
2026-04-15 15:12 47.78835 -123.12814 21850 ft 423 kts 309°
2026-04-15 15:12 47.80924 -123.15916 22298 ft 427 kts 308°
2026-04-15 15:13 47.83038 -123.19061 22720 ft 431 kts 308°
2026-04-15 15:13 47.85165 -123.22213 23226 ft 433 kts 308°
2026-04-15 15:13 47.87306 -123.25384 23613 ft 437 kts 308°
2026-04-15 15:13 47.89462 -123.28598 24011 ft 439 kts 307°
2026-04-15 15:14 47.91610 -123.31829 24422 ft 440 kts 308°
2026-04-15 15:14 47.93777 -123.35076 24792 ft 442 kts 308°
2026-04-15 15:14 47.95962 -123.38343 25110 ft 447 kts 309°
2026-04-15 15:14 47.98163 -123.41636 25444 ft 449 kts 308°
2026-04-15 15:15 48.00371 -123.44938 25826 ft 451 kts 309°
2026-04-15 15:15 48.02588 -123.48266 26235 ft 451 kts 309°
2026-04-15 15:15 48.04800 -123.51586 26737 ft 450 kts 308°
2026-04-15 15:15 48.06997 -123.54894 27304 ft 447 kts 309°
2026-04-15 15:16 48.09185 -123.58194 27844 ft 446 kts 308°
2026-04-15 15:16 48.11363 -123.61488 28327 ft 445 kts 308°
2026-04-15 15:16 48.13545 -123.64787 28811 ft 446 kts 309°
2026-04-15 15:16 48.15821 -123.67976 29212 ft 453 kts 317°
2026-04-15 15:17 48.18450 -123.70605 29749 ft 456 kts 322°
2026-04-15 15:17 48.21158 -123.73060 30231 ft 454 kts 323°
2026-04-15 15:17 48.23883 -123.75479 30630 ft 454 kts 323°
2026-04-15 15:17 48.26590 -123.77891 30980 ft 454 kts 323°
2026-04-15 15:18 48.29289 -123.80328 31346 ft 453 kts 323°
2026-04-15 15:18 48.31983 -123.82792 31750 ft 452 kts 323°
2026-04-15 15:18 48.34659 -123.85268 32143 ft 451 kts 323°
2026-04-15 15:18 48.37319 -123.87743 32506 ft 450 kts 323°
2026-04-15 15:19 48.39946 -123.90201 32845 ft 450 kts 323°
2026-04-15 15:19 48.42632 -123.92721 33234 ft 449 kts 323°
2026-04-15 15:19 48.45251 -123.95181 33600 ft 448 kts 323°
2026-04-15 15:19 48.47930 -123.97699 33932 ft 448 kts 323°
2026-04-15 15:20 48.50538 -124.00156 34224 ft 448 kts 323°
2026-04-15 15:20 48.53206 -124.02673 34508 ft 447 kts 323°
2026-04-15 15:20 48.55848 -124.05166 34779 ft 447 kts 323°
2026-04-15 15:20 48.58444 -124.07608 35024 ft 446 kts 324°
2026-04-15 15:21 48.61078 -124.10099 35318 ft 445 kts 323°
2026-04-15 15:21 48.63701 -124.12586 35585 ft 445 kts 323°
2026-04-15 15:21 48.66323 -124.15075 35826 ft 445 kts 323°
2026-04-15 15:21 48.68955 -124.17576 35863 ft 448 kts 324°
2026-04-15 15:22 48.74219 -124.22586 35884 ft 446 kts 324°
2026-04-15 15:22 48.79458 -124.27580 35876 ft 443 kts 324°
2026-04-15 15:23 48.84660 -124.32547 35882 ft 441 kts 324°
2026-04-15 15:23 48.89850 -124.37520 35876 ft 441 kts 324°
2026-04-15 15:24 48.95034 -124.42503 35880 ft 442 kts 324°
2026-04-15 15:24 49.00238 -124.47504 35888 ft 442 kts 324°
2026-04-15 15:25 49.05439 -124.52524 35897 ft 444 kts 324°
2026-04-15 15:25 49.10676 -124.57601 35908 ft 447 kts 324°
2026-04-15 15:26 49.15934 -124.62704 35899 ft 449 kts 324°
2026-04-15 15:26 49.21215 -124.67832 35890 ft 450 kts 324°
2026-04-15 15:27 49.26491 -124.72971 35883 ft 450 kts 324°
2026-04-15 15:27 49.31766 -124.78137 35899 ft 450 kts 324°
2026-04-15 15:28 49.37025 -124.83293 35888 ft 448 kts 325°
2026-04-15 15:28 49.42242 -124.88421 35881 ft 447 kts 324°
2026-04-15 15:29 49.47474 -124.93569 35887 ft 446 kts 324°
2026-04-15 15:29 49.52696 -124.98733 35895 ft 445 kts 325°
2026-04-15 15:30 49.57903 -125.03893 35883 ft 445 kts 325°
2026-04-15 15:30 49.63093 -125.09048 35890 ft 444 kts 325°
2026-04-15 15:31 49.68279 -125.14209 35885 ft 443 kts 324°
2026-04-15 15:31 49.73450 -125.19371 35895 ft 443 kts 325°
2026-04-15 15:32 49.78635 -125.24559 35877 ft 443 kts 325°
2026-04-15 15:32 49.83810 -125.29748 35881 ft 443 kts 325°
2026-04-15 15:33 49.88974 -125.34942 35880 ft 443 kts 325°
2026-04-15 15:33 49.94132 -125.40147 35883 ft 442 kts 325°
2026-04-15 15:34 49.99296 -125.45366 35885 ft 442 kts 325°
2026-04-15 15:34 50.04449 -125.50593 35886 ft 443 kts 325°
2026-04-15 15:35 50.09610 -125.55836 35886 ft 443 kts 325°
2026-04-15 15:35 50.14771 -125.61095 35884 ft 444 kts 325°
2026-04-15 15:36 50.19948 -125.66381 35886 ft 445 kts 325°
2026-04-15 15:36 50.25138 -125.71698 35885 ft 446 kts 325°
2026-04-15 15:37 50.30294 -125.76995 35886 ft 447 kts 325°
2026-04-15 15:37 50.35486 -125.82339 35881 ft 447 kts 325°
2026-04-15 15:38 50.40668 -125.87689 35882 ft 447 kts 325°
2026-04-15 15:38 50.45863 -125.93065 35889 ft 447 kts 325°
2026-04-15 15:39 50.51054 -125.98454 35890 ft 447 kts 325°
2026-04-15 15:39 50.56233 -126.03843 35885 ft 446 kts 325°
2026-04-15 15:40 50.61397 -126.09234 35881 ft 445 kts 325°
2026-04-15 15:40 50.66555 -126.14634 35878 ft 445 kts 325°
2026-04-15 15:41 50.71693 -126.20042 35886 ft 444 kts 325°
2026-04-15 15:41 50.76842 -126.25454 35892 ft 444 kts 325°
2026-04-15 15:42 50.81975 -126.30855 35896 ft 443 kts 325°
2026-04-15 15:42 50.87095 -126.36275 35892 ft 443 kts 325°
2026-04-15 15:43 50.92217 -126.41710 35894 ft 443 kts 325°
2026-04-15 15:43 50.97326 -126.47141 35895 ft 442 kts 326°
2026-04-15 15:44 51.02421 -126.52620 35895 ft 442 kts 324°
2026-04-15 15:44 51.07456 -126.58218 35894 ft 442 kts 324°
2026-04-15 15:45 51.12443 -126.63815 35906 ft 441 kts 324°
2026-04-15 15:45 51.17464 -126.69458 35899 ft 442 kts 324°
2026-04-15 15:46 51.22520 -126.75137 35896 ft 442 kts 324°
2026-04-15 15:46 51.27504 -126.80755 35894 ft 442 kts 324°
2026-04-15 15:47 51.32527 -126.86426 35904 ft 442 kts 324°
2026-04-15 15:47 51.37556 -126.92099 35926 ft 441 kts 326°
2026-04-15 15:48 51.42627 -126.97644 35922 ft 441 kts 324°
2026-04-15 15:48 51.47595 -127.03420 35917 ft 442 kts 324°
2026-04-15 15:49 51.52586 -127.09171 35911 ft 442 kts 324°
2026-04-15 15:49 51.57586 -127.14922 35919 ft 443 kts 324°
2026-04-15 15:50 51.62604 -127.20695 35930 ft 443 kts 324°
2026-04-15 15:50 51.67644 -127.26417 35924 ft 443 kts 325°
2026-04-15 15:51 51.72664 -127.32192 35928 ft 444 kts 324°
2026-04-15 15:51 51.77668 -127.38034 35925 ft 444 kts 324°
2026-04-15 15:52 51.82645 -127.43842 35927 ft 444 kts 324°
2026-04-15 15:52 51.87687 -127.49716 35920 ft 443 kts 324°
2026-04-15 15:53 51.92687 -127.55391 35927 ft 442 kts 324°
2026-04-15 15:53 51.97595 -127.61385 35929 ft 441 kts 324°
2026-04-15 15:54 52.02571 -127.67186 35929 ft 441 kts 325°
2026-04-15 15:54 52.07555 -127.72984 35921 ft 440 kts 324°
2026-04-15 15:55 52.12505 -127.78807 35917 ft 439 kts 324°
2026-04-15 15:55 52.17441 -127.84647 35915 ft 439 kts 324°
2026-04-15 15:56 52.22368 -127.90495 35919 ft 438 kts 324°
2026-04-15 15:56 52.26487 -127.95288 35927 ft 436 kts 326°
2026-04-15 15:57 52.31356 -128.01252 35922 ft 437 kts 323°
2026-04-15 15:57 52.36242 -128.07165 35917 ft 437 kts 324°
2026-04-15 15:58 52.41177 -128.13011 35923 ft 437 kts 324°
2026-04-15 15:58 52.46086 -128.18876 35922 ft 437 kts 324°
2026-04-15 15:59 52.50997 -128.24789 35923 ft 438 kts 324°
2026-04-15 15:59 52.55910 -128.30730 35920 ft 438 kts 324°
2026-04-15 16:00 52.60813 -128.36674 35916 ft 438 kts 324°
2026-04-15 16:00 52.65721 -128.42640 35917 ft 438 kts 324°
2026-04-15 16:01 52.70615 -128.48612 35918 ft 437 kts 324°
2026-04-15 16:01 52.75473 -128.54531 35928 ft 437 kts 324°
2026-04-15 16:02 52.80346 -128.60527 35913 ft 437 kts 324°
2026-04-15 16:02 52.85218 -128.66527 35948 ft 436 kts 324°
2026-04-15 16:03 52.90076 -128.72538 35932 ft 437 kts 324°
2026-04-15 16:03 52.94960 -128.78572 35932 ft 437 kts 324°
2026-04-15 16:04 52.99873 -128.84493 35929 ft 437 kts 324°
2026-04-15 16:04 53.04723 -128.90549 35924 ft 437 kts 323°
2026-04-15 16:05 53.09558 -128.96695 35936 ft 437 kts 324°
2026-04-15 16:05 53.14408 -129.02807 35932 ft 438 kts 324°
2026-04-15 16:06 53.19263 -129.08941 35939 ft 438 kts 324°
2026-04-15 16:06 53.24128 -129.15033 35930 ft 437 kts 324°
2026-04-15 16:07 53.28984 -129.21150 35942 ft 437 kts 324°
2026-04-15 16:08 53.36252 -129.30355 35946 ft 436 kts 324°
2026-04-15 16:08 53.41072 -129.36497 35942 ft 435 kts 324°
2026-04-15 16:09 53.45893 -129.42635 35953 ft 434 kts 324°
2026-04-15 16:09 53.50705 -129.48782 35948 ft 434 kts 324°
2026-04-15 16:10 53.55471 -129.54926 35965 ft 434 kts 324°
2026-04-15 16:10 53.60265 -129.61089 35952 ft 434 kts 324°
2026-04-15 16:11 53.65072 -129.67294 35952 ft 434 kts 324°
2026-04-15 16:11 53.69861 -129.73493 35958 ft 434 kts 324°
2026-04-15 16:12 53.74644 -129.79702 35961 ft 434 kts 324°
2026-04-15 16:12 53.79418 -129.85917 35974 ft 433 kts 324°
2026-04-15 16:13 53.84215 -129.92171 35972 ft 432 kts 324°
2026-04-15 16:13 53.88936 -129.98358 35955 ft 432 kts 324°
2026-04-15 16:14 53.93710 -130.04639 35965 ft 431 kts 324°
2026-04-15 16:14 53.98424 -130.10849 35959 ft 431 kts 324°
2026-04-15 16:15 54.03164 -130.17103 35951 ft 430 kts 324°
2026-04-15 16:15 54.07885 -130.23355 35942 ft 430 kts 324°
2026-04-15 16:16 54.12599 -130.29633 35957 ft 429 kts 324°
2026-04-15 16:16 54.17301 -130.35905 35964 ft 429 kts 323°
2026-04-15 16:17 54.21995 -130.42182 35972 ft 429 kts 324°
2026-04-15 16:17 54.26684 -130.48473 35982 ft 428 kts 323°
2026-04-15 16:18 54.31367 -130.54772 35960 ft 428 kts 324°
2026-04-15 16:18 54.36040 -130.61078 35970 ft 427 kts 323°
2026-04-15 16:19 54.40695 -130.67378 35983 ft 427 kts 323°
2026-04-15 16:19 54.45364 -130.73712 35979 ft 428 kts 323°
2026-04-15 16:20 54.50037 -130.80076 35978 ft 429 kts 323°
2026-04-15 16:20 54.54713 -130.86459 35976 ft 430 kts 323°
2026-04-15 16:21 54.59403 -130.92887 35978 ft 431 kts 323°
2026-04-15 16:21 54.64095 -130.99330 35979 ft 432 kts 323°
2026-04-15 16:22 54.68787 -131.05794 35969 ft 432 kts 323°
2026-04-15 16:22 54.73488 -131.12293 35991 ft 432 kts 323°
2026-04-15 16:23 54.78173 -131.18792 35993 ft 432 kts 323°
2026-04-15 16:23 54.82861 -131.25311 35983 ft 432 kts 323°
2026-04-15 16:24 54.87537 -131.31831 35991 ft 431 kts 323°
2026-04-15 16:24 54.92213 -131.38376 36004 ft 431 kts 323°
2026-04-15 16:25 54.96877 -131.44924 35985 ft 430 kts 323°
2026-04-15 16:25 55.01525 -131.51472 35991 ft 430 kts 323°
2026-04-15 16:26 55.06183 -131.57993 35989 ft 428 kts 326°
2026-04-15 16:26 55.11157 -131.63562 35988 ft 427 kts 330°
2026-04-15 16:27 55.16283 -131.68938 35974 ft 426 kts 330°
2026-04-15 16:27 55.21349 -131.74302 35987 ft 426 kts 330°
2026-04-15 16:28 55.26361 -131.79680 35988 ft 425 kts 330°
2026-04-15 16:28 55.31470 -131.85006 35992 ft 424 kts 329°
2026-04-15 16:29 55.36433 -131.90524 35990 ft 425 kts 329°
2026-04-15 16:29 55.41438 -131.96051 35988 ft 424 kts 329°
2026-04-15 16:30 55.46436 -132.01535 35993 ft 423 kts 329°
2026-04-15 16:30 55.51432 -132.07019 35992 ft 423 kts 329°
2026-04-15 16:31 55.56423 -132.12515 35998 ft 422 kts 329°
2026-04-15 16:31 55.61397 -132.18036 36009 ft 423 kts 329°
2026-04-15 16:32 55.66373 -132.23523 35989 ft 421 kts 329°
2026-04-15 16:32 55.71343 -132.29028 35996 ft 420 kts 329°
2026-04-15 16:33 55.76287 -132.34534 36002 ft 419 kts 329°
2026-04-15 16:33 55.81213 -132.40042 36001 ft 418 kts 329°
2026-04-15 16:34 55.86139 -132.45562 36000 ft 418 kts 329°
2026-04-15 16:34 55.91054 -132.51084 36000 ft 417 kts 329°
2026-04-15 16:35 55.95962 -132.56614 36002 ft 417 kts 329°
2026-04-15 16:35 56.00855 -132.62148 36002 ft 416 kts 329°
2026-04-15 16:36 56.05746 -132.67695 36001 ft 416 kts 329°
2026-04-15 16:36 56.10643 -132.73266 35998 ft 416 kts 329°
2026-04-15 16:37 56.15520 -132.78835 35988 ft 415 kts 329°
2026-04-15 16:37 56.20356 -132.84368 35995 ft 415 kts 329°
2026-04-15 16:38 56.25213 -132.89948 35999 ft 414 kts 328°
2026-04-15 16:38 56.30096 -132.95594 36000 ft 415 kts 328°
2026-04-15 16:39 56.34919 -133.01166 36001 ft 415 kts 328°
2026-04-15 16:39 56.39770 -133.06765 35989 ft 414 kts 328°
2026-04-15 16:40 56.44609 -133.12382 35994 ft 413 kts 328°
2026-04-15 16:40 56.49445 -133.18022 36011 ft 414 kts 328°
2026-04-15 16:41 56.54284 -133.23680 36001 ft 415 kts 328°
2026-04-15 16:41 56.59139 -133.29375 36003 ft 416 kts 328°
2026-04-15 16:42 56.63998 -133.35056 35986 ft 415 kts 328°
2026-04-15 16:42 56.68835 -133.40789 35989 ft 415 kts 328°
2026-04-15 16:43 56.72854 -133.45564 36000 ft 415 kts 327°
2026-04-15 16:43 56.78505 -133.52278 35994 ft 415 kts 328°
2026-04-15 16:44 56.82527 -133.57100 35992 ft 415 kts 327°
2026-04-15 16:44 56.87359 -133.62863 35990 ft 415 kts 327°
2026-04-15 16:45 56.92199 -133.68632 35997 ft 415 kts 327°
2026-04-15 16:45 56.97028 -133.74438 35991 ft 415 kts 327°
2026-04-15 16:46 57.01838 -133.80243 35999 ft 414 kts 327°
2026-04-15 16:46 57.06651 -133.86053 35990 ft 414 kts 327°
2026-04-15 16:47 57.11447 -133.91918 35982 ft 413 kts 327°
2026-04-15 16:47 57.16225 -133.97723 35991 ft 411 kts 327°
2026-04-15 16:48 57.20985 -134.03522 35974 ft 410 kts 327°
2026-04-15 16:48 57.23392 -134.06468 35347 ft 416 kts 327°
2026-04-15 16:48 57.25770 -134.09386 34833 ft 409 kts 327°
2026-04-15 16:48 57.28150 -134.12309 33914 ft 410 kts 327°
2026-04-15 16:49 57.30501 -134.15178 32994 ft 400 kts 327°
2026-04-15 16:49 57.32789 -134.17984 32164 ft 389 kts 326°
2026-04-15 16:49 57.35006 -134.20718 31365 ft 379 kts 326°
2026-04-15 16:49 57.37176 -134.23411 30618 ft 371 kts 326°
2026-04-15 16:50 57.39308 -134.26028 29729 ft 367 kts 327°
2026-04-15 16:50 57.41477 -134.28557 28855 ft 372 kts 325°
2026-04-15 16:50 57.43581 -134.31371 28183 ft 372 kts 323°
2026-04-15 16:50 57.45687 -134.34165 27528 ft 370 kts 325°
2026-04-15 16:51 57.47816 -134.36856 26869 ft 368 kts 326°
2026-04-15 16:51 57.49959 -134.39455 26209 ft 367 kts 326°
2026-04-15 16:51 57.52066 -134.42022 25557 ft 366 kts 326°
2026-04-15 16:51 57.54218 -134.44670 24923 ft 366 kts 326°
2026-04-15 16:52 57.56335 -134.47293 24303 ft 365 kts 326°
2026-04-15 16:52 57.58433 -134.49909 23786 ft 361 kts 325°
2026-04-15 16:52 57.60504 -134.52501 23294 ft 357 kts 325°
2026-04-15 16:52 57.62530 -134.55043 22669 ft 355 kts 325°
2026-04-15 16:53 57.64571 -134.57608 22051 ft 353 kts 325°
2026-04-15 16:53 57.66602 -134.60148 21458 ft 350 kts 325°
2026-04-15 16:53 57.68617 -134.62680 20903 ft 347 kts 325°
2026-04-15 16:53 57.70609 -134.65217 20348 ft 345 kts 325°
2026-04-15 16:54 57.72591 -134.67735 19826 ft 343 kts 325°
2026-04-15 16:54 57.74563 -134.70210 19275 ft 341 kts 326°
2026-04-15 16:54 57.76561 -134.72612 18740 ft 340 kts 326°
2026-04-15 16:54 57.78502 -134.75112 18229 ft 337 kts 324°
2026-04-15 16:55 57.80416 -134.77603 17658 ft 336 kts 325°
2026-04-15 16:55 57.82338 -134.80084 17082 ft 334 kts 324°
2026-04-15 16:55 57.84251 -134.82544 16535 ft 333 kts 324°
2026-04-15 16:55 57.86157 -134.84990 16004 ft 331 kts 324°
2026-04-15 16:56 57.88052 -134.87419 15488 ft 329 kts 324°
2026-04-15 16:56 57.89940 -134.89836 14974 ft 328 kts 324°
2026-04-15 16:56 57.91823 -134.92252 14469 ft 326 kts 324°
2026-04-15 16:56 57.93693 -134.94648 13968 ft 325 kts 324°
2026-04-15 16:57 57.95558 -134.97057 13454 ft 324 kts 324°
2026-04-15 16:57 57.97411 -134.99445 12972 ft 322 kts 324°
2026-04-15 16:57 57.99202 -135.01750 12847 ft 302 kts 324°
2026-04-15 16:57 58.00890 -135.03923 12707 ft 285 kts 324°
2026-04-15 16:58 58.02490 -135.05988 12548 ft 273 kts 324°
2026-04-15 16:58 58.04032 -135.07982 12106 ft 267 kts 324°
2026-04-15 16:58 58.05560 -135.09964 11431 ft 266 kts 324°
2026-04-15 16:58 58.07041 -135.11884 11191 ft 247 kts 323°
2026-04-15 16:59 58.08432 -135.13689 10717 ft 241 kts 323°
2026-04-15 16:59 58.09817 -135.15488 10141 ft 240 kts 323°
2026-04-15 16:59 58.11148 -135.17217 10060 ft 227 kts 323°
2026-04-15 16:59 58.12449 -135.18911 9773 ft 228 kts 323°
2026-04-15 17:00 58.13759 -135.20618 9494 ft 230 kts 323°
2026-04-15 17:00 58.15081 -135.22341 9200 ft 231 kts 323°
2026-04-15 17:00 58.15947 -135.23469 8994 ft 0 kts 323°
2026-04-15 17:00 58.16500 -135.24219 8919 ft 228 kts 325°
2026-04-15 17:01 58.18015 -135.25067 8582 ft 234 kts 360°
2026-04-15 17:01 58.19609 -135.24261 8213 ft 240 kts 22°
2026-04-15 17:01 58.21082 -135.22875 7923 ft 240 kts 26°
2026-04-15 17:01 58.22555 -135.21385 7619 ft 240 kts 27°
2026-04-15 17:02 58.24027 -135.19896 7331 ft 240 kts 26°
2026-04-15 17:02 58.25497 -135.18420 7045 ft 239 kts 26°
2026-04-15 17:02 58.26957 -135.16964 6775 ft 238 kts 26°
2026-04-15 17:02 58.28427 -135.15507 6495 ft 237 kts 26°
2026-04-15 17:03 58.29889 -135.14065 6222 ft 236 kts 26°
2026-04-15 17:03 58.31334 -135.12640 5999 ft 231 kts 26°
2026-04-15 17:03 58.32743 -135.11251 5896 ft 226 kts 26°
2026-04-15 17:03 58.34151 -135.09863 5809 ft 229 kts 26°
2026-04-15 17:04 58.35567 -135.08444 5536 ft 232 kts 28°
2026-04-15 17:04 58.36746 -135.06410 5171 ft 228 kts 61°
2026-04-15 17:04 58.37181 -135.03595 4839 ft 223 kts 85°
2026-04-15 17:04 58.37230 -135.00680 4554 ft 216 kts 92°
2026-04-15 17:05 58.37161 -134.97923 4296 ft 206 kts 94°
2026-04-15 17:05 58.37061 -134.95197 4034 ft 207 kts 95°
2026-04-15 17:05 58.36860 -134.92506 3715 ft 210 kts 101°
2026-04-15 17:05 58.36585 -134.89778 3438 ft 209 kts 102°
2026-04-15 17:06 58.36353 -134.87062 3227 ft 207 kts 97°
2026-04-15 17:06 58.36237 -134.84351 2988 ft 202 kts 92°
2026-04-15 17:06 58.36213 -134.81719 2695 ft 198 kts 91°
2026-04-15 17:06 58.36211 -134.79144 2414 ft 187 kts 90°
2026-04-15 17:07 58.36247 -134.76777 2325 ft 172 kts 88°
2026-04-15 17:07 58.36284 -134.74624 2291 ft 154 kts 87°
2026-04-15 17:07 58.36415 -134.72583 1977 ft 156 kts 79°
2026-04-15 17:07 58.36691 -134.70608 1720 ft 152 kts 75°
2026-04-15 17:08 58.36875 -134.68622 1332 ft 154 kts 88°
2026-04-15 17:08 58.36772 -134.66606 1106 ft 152 kts 103°
2026-04-15 17:08 58.36478 -134.64667 852 ft 150 kts 107°
2026-04-15 17:08 58.36216 -134.62758 594 ft 148 kts 103°
2026-04-15 17:09 58.35952 -134.60861 317 ft 147 kts 106°
2026-04-15 17:09 58.35693 -134.59020 45 ft 136 kts 105°
2026-04-15 17:09 58.35482 -134.57506 34 ft 92 kts 105°
2026-04-15 17:09 58.35374 -134.56750 33 ft 17 kts 107°
2026-04-15 17:10 58.35382 -134.56691 32 ft 2 kts
2026-04-15 17:10 58.35447 -134.56671 32 ft 10 kts 352°
2026-04-15 17:10 58.35484 -134.56734 32 ft 6 kts 296°
2026-04-15 17:10 58.35492 -134.56796 32 ft 5 kts 280°
2026-04-15 17:11 58.35498 -134.56855 33 ft 4 kts 283°
2026-04-15 17:11 58.35506 -134.56911 33 ft 4 kts 285°
2026-04-15 17:11 58.35514 -134.56962 32 ft 3 kts 286°
2026-04-15 17:12 58.35535 -134.57113 33 ft 10 kts 284°
2026-04-15 17:12 58.35552 -134.57240 33 ft 10 kts 284°
2026-04-15 17:12 58.35568 -134.57358 33 ft 9 kts 284°
2026-04-15 17:12 58.35583 -134.57464 34 ft 8 kts 286°
2026-04-15 17:13 58.35595 -134.57562 31 ft 7 kts 282°
2026-04-15 17:13 58.35606 -134.57654 33 ft 7 kts 282°
2026-04-15 17:13 58.35618 -134.57737 33 ft 6 kts 286°
2026-04-15 17:13 58.35632 -134.57813 33 ft 6 kts 291°
2026-04-15 17:14 58.35647 -134.57887 33 ft 6 kts 291°
2026-04-15 17:14 58.35658 -134.57969 33 ft 10 kts 280°
2026-04-15 17:14 58.35675 -134.58120 33 ft 12 kts 285°
2026-04-15 17:14 58.35692 -134.58239 33 ft 7 kts 283°
2026-04-15 17:15 58.35712 -134.58294 33 ft 5 kts 332°
2026-04-15 17:15 58.35744 -134.58302 33 ft 5 kts 355°
2026-04-15 17:15 58.35768 -134.58341 31 ft 5 kts 298°
2026-04-15 17:15 58.35780 -134.58401 33 ft 5 kts 287°
2026-04-15 17:16 58.35788 -134.58461 33 ft 5 kts 285°
2026-04-15 17:16 58.35800 -134.58505 33 ft 2 kts 327°
2026-04-15 17:16 58.35806 -134.58508 33 ft 0 kts 342°
2026-04-15 17:16 58.35807 -134.58508 33 ft 0 kts 342°
2026-04-15 17:17 58.35817 -134.58491 33 ft 2 kts 43°
2026-04-15 17:17 58.35827 -134.58472 33 ft 0 kts 47°
2026-04-15 17:17 58.35837 -134.58450 33 ft 3 kts 47°
2026-04-15 17:17 58.35847 -134.58429 33 ft 2 kts 48°
2026-04-15 17:18 58.35848 -134.58427 33 ft 0 kts 48°